Okmulgee, OK

10:27 PM CST on December 04, 2016 (GMT -0600)
Okmulgee Regional

Weather History for KOKM - October, 2013

Change the Weather History Date:

Sunday, October 27, 2013

  Actual Average (KMKO) Record (KMKO)
Temperature  
Mean Temperature 54 °F -  
Max Temperature 68 °F 67 °F 84 °F (1999)
Min Temperature 40 °F 47 °F 30 °F (2008)
Degree Days  
Heating Degree Days 11    
Growing Degree Days 4 (Base 50)    
Moisture  
Dew Point 43 °F    
Average Humidity 71    
Maximum Humidity 100    
Minimum Humidity 29    
Precipitation  
Precipitation 0.00 in - - ()
Sea Level Pressure  
Sea Level Pressure 30.06 in    
Wind  
Wind Speed 3 mph (West)    
Max Wind Speed 9 mph    
Max Gust Speed -    
Visibility 9 miles    
Events Fog    
Averages and records for this station are not official NWS values.
T = Trace of Precipitation, MM = Missing Value Source: NWS Daily Summary

Daily Weather History Graph

Daily Weather History Graph

Search for Another Location

Airport or City:

Trip Planner

Search our weather history database for the weather conditions in past years. The results will help you decide how hot, cold, wet, or windy it might be!

Date:

Astronomy

Oct. 27, 2013 Rise Set
Actual Time 7:41 AM CDT 6:33 PM CDT
Civil Twilight 7:15 AM CDT 6:59 PM CDT
Nautical Twilight 6:45 AM CDT 7:29 PM CDT
Astronomical Twilight 6:15 AM CDT 7:59 PM CDT
Moon 12:53 AM CDT (10/27) 2:30 PM CDT (10/27)
Length of Visible Light 11h 44m
Length of Day
10h 52m
Last Quarter, 43% of the Moon is Illuminated
Oct 27
Last Quarter
Nov 3
New
Nov 9
First Quarter
Nov 17
Full
Nov 25
Last Quarter

Hourly Weather History & Observations

Time (CDT) Temp. Windchill Dew Point Humidity Pressure Visibility Wind Dir Wind Speed Gust Speed Precip Events Conditions
12:15 AM 55.0 °F - 55.0 °F 100% 30.12 in 0.5 mi South 4.6 mph - N/A Fog Fog
12:35 AM 55.0 °F - 55.0 °F 100% 30.12 in 0.2 mi Calm Calm - N/A Fog Fog
12:55 AM 54.9 °F - 54.9 °F 100% 30.12 in 0.2 mi Calm Calm - N/A Fog Fog
1:15 AM 54.7 °F - 54.7 °F 100% 30.11 in 0.2 mi Calm Calm - N/A Fog Fog
1:35 AM 54.5 °F - 54.5 °F 100% 30.11 in 0.2 mi Calm Calm - N/A Fog Fog
1:55 AM 53.8 °F - 53.8 °F 100% 30.11 in 0.5 mi Calm Calm - N/A Fog Fog
2:15 AM 52.3 °F - 52.3 °F 100% 30.11 in 0.8 mi NNE 5.8 mph - N/A   Overcast
2:35 AM 52.5 °F - 52.5 °F 100% 30.11 in 5.0 mi North 4.6 mph - N/A   Overcast
2:55 AM 52.0 °F - 52.0 °F 100% 30.11 in 10.0 mi North 6.9 mph - N/A   Overcast
3:15 AM 51.4 °F - 51.1 °F 99% 30.10 in 10.0 mi North 6.9 mph - N/A   Overcast
3:35 AM 51.8 °F - 50.4 °F 95% 30.10 in 10.0 mi NNE 5.8 mph - N/A   Overcast
3:55 AM 51.3 °F - 49.3 °F 93% 30.09 in 10.0 mi NNE 5.8 mph - N/A   Overcast
4:15 AM 50.2 °F - 47.5 °F 90% 30.09 in 10.0 mi North 5.8 mph - N/A   Overcast
4:35 AM 49.1 °F - 45.0 °F 86% 30.09 in 10.0 mi NNE 5.8 mph - N/A   Mostly Cloudy
4:55 AM 47.8 °F - 43.9 °F 86% 30.09 in 10.0 mi North 8.1 mph - N/A   Scattered Clouds
5:15 AM 47.1 °F - 41.9 °F 82% 30.09 in 10.0 mi North 5.8 mph - N/A   Clear
5:35 AM 45.5 °F 41.8 °F 41.0 °F 84% 30.09 in 10.0 mi North 6.9 mph - N/A   Clear
5:55 AM 44.6 °F 42.2 °F 39.7 °F 83% 30.09 in 10.0 mi North 4.6 mph - N/A   Clear
6:15 AM 44.2 °F 42.7 °F 38.8 °F 81% 30.09 in 10.0 mi North 3.5 mph - N/A   Scattered Clouds
6:35 AM 44.6 °F - 39.4 °F 82% 30.09 in 10.0 mi Calm Calm - N/A   Mostly Cloudy
6:55 AM 44.2 °F - 39.2 °F 82% 30.09 in 10.0 mi Calm Calm - N/A   Scattered Clouds
7:15 AM 43.7 °F - 38.1 °F 81% 30.09 in 10.0 mi Calm Calm - N/A   Clear
7:35 AM 41.0 °F - 37.8 °F 88% 30.09 in 10.0 mi Calm Calm - N/A   Clear
7:55 AM 42.4 °F - 37.8 °F 83% 30.10 in 10.0 mi Calm Calm - N/A   Clear
8:15 AM 40.6 °F - 39.2 °F 95% 30.10 in 10.0 mi Calm Calm - N/A   Clear
8:35 AM 42.1 °F - 40.8 °F 95% 30.11 in 10.0 mi Calm Calm - N/A   Clear
8:55 AM 43.9 °F - 41.2 °F 90% 30.11 in 10.0 mi Calm Calm - N/A   Clear
9:15 AM 46.4 °F - 40.1 °F 79% 30.11 in 10.0 mi Calm Calm - N/A   Clear
9:35 AM 48.9 °F - 40.5 °F 73% 30.12 in 10.0 mi NNW 3.5 mph - N/A   Clear
9:55 AM 49.3 °F - 40.8 °F 73% 30.12 in 10.0 mi Calm Calm - N/A   Clear
10:15 AM 50.0 °F - 41.7 °F 73% 30.12 in 10.0 mi Calm Calm - N/A   Clear
10:35 AM 51.1 °F - 42.1 °F 71% 30.12 in 10.0 mi Calm Calm - N/A   Clear
10:55 AM 53.6 °F - 43.5 °F 69% 30.12 in 10.0 mi Calm Calm - N/A   Clear
11:15 AM 56.1 °F - 44.1 °F 64% 30.12 in 10.0 mi WSW 4.6 mph - N/A   Clear
11:35 AM 58.8 °F - 45.0 °F 60% 30.12 in 10.0 mi Calm Calm - N/A   Clear
11:55 AM 60.8 °F - 45.0 °F 56% 30.11 in 10.0 mi West 4.6 mph - N/A   Clear
12:15 PM 62.4 °F - 44.2 °F 51% 30.11 in 10.0 mi SSW 3.5 mph - N/A   Clear
12:35 PM 62.8 °F - 41.9 °F 46% 30.10 in 10.0 mi Calm Calm - N/A   Clear
12:55 PM 64.0 °F - 39.7 °F 41% 30.09 in 10.0 mi West 4.6 mph - N/A   Clear
1:15 PM 64.9 °F - 38.3 °F 37% 30.08 in 10.0 mi WSW 5.8 mph - N/A   Clear
1:35 PM 65.3 °F - 38.8 °F 38% 30.06 in 0.5 mi Calm Calm - N/A   Haze
1:55 PM 65.5 °F - 39.0 °F 38% 30.05 in 10.0 mi SW 3.5 mph - N/A   Clear
2:15 PM 66.6 °F - 37.2 °F 34% 30.04 in 10.0 mi Calm Calm - N/A   Clear
2:35 PM 67.1 °F - 36.5 °F 32% 30.04 in 10.0 mi North - - N/A   Clear
2:55 PM 67.5 °F - 35.2 °F 30% 30.03 in 10.0 mi Calm Calm - N/A   Clear
3:15 PM 68.4 °F - 34.9 °F 29% 30.02 in 10.0 mi South 4.6 mph - N/A   Clear
3:35 PM 68.4 °F - 35.2 °F 30% 30.01 in 10.0 mi West 5.8 mph - N/A   Clear
3:55 PM 68.0 °F - 35.4 °F 30% 30.01 in 10.0 mi Calm Calm - N/A   Clear
4:15 PM 68.0 °F - 36.9 °F 32% 30.01 in 10.0 mi West 5.8 mph - N/A   Clear
4:35 PM 68.5 °F - 38.1 °F 33% 30.00 in 10.0 mi WSW 5.8 mph - N/A   Clear
4:55 PM 68.4 °F - 39.4 °F 35% 30.00 in 10.0 mi WSW 3.5 mph - N/A   Clear
5:15 PM 68.2 °F - 39.7 °F 35% 29.99 in 10.0 mi Calm Calm - N/A   Clear
5:35 PM 67.6 °F - 38.7 °F 35% 29.99 in 10.0 mi SSW 3.5 mph - N/A   Clear
5:55 PM 67.1 °F - 37.8 °F 34% 29.98 in 10.0 mi Calm Calm - N/A   Clear
6:15 PM 66.2 °F - 38.1 °F 36% 29.98 in 10.0 mi Calm Calm - N/A   Clear
6:35 PM 60.8 °F - 42.6 °F 51% 29.98 in 10.0 mi Calm Calm - N/A   Clear
6:55 PM 57.9 °F - 45.9 °F 64% 29.98 in 10.0 mi Calm Calm - N/A   Clear
7:15 PM 55.6 °F - 42.8 °F 62% 29.99 in 10.0 mi Calm Calm - N/A   Clear
7:35 PM 53.6 °F - 42.6 °F 66% 29.99 in 10.0 mi Calm Calm - N/A   Clear
7:55 PM 51.1 °F - 42.4 °F 72% 30.00 in 10.0 mi Calm Calm - N/A   Clear
8:15 PM 47.8 °F - 42.4 °F 82% 30.00 in 10.0 mi Calm Calm - N/A   Clear
8:35 PM 49.8 °F - 42.6 °F 76% 30.00 in 10.0 mi SSW 5.8 mph - N/A   Clear
8:55 PM 48.2 °F - 43.0 °F 82% 30.00 in 10.0 mi Calm Calm - N/A   Clear
9:15 PM 49.3 °F - 43.2 °F 79% 30.01 in 10.0 mi SSW 9.2 mph - N/A   Clear
9:35 PM 47.7 °F - 43.0 °F 84% 30.01 in 10.0 mi SSW 4.6 mph - N/A   Clear
9:55 PM 47.8 °F - 44.6 °F 89% 30.02 in 10.0 mi SW 3.5 mph - N/A   Clear
10:15 PM 50.2 °F - 46.0 °F 86% 30.02 in 10.0 mi SSW 8.1 mph - N/A   Clear
10:35 PM 49.1 °F - 45.7 °F 88% 30.02 in 10.0 mi SSW 3.5 mph - N/A   Clear
10:55 PM 48.2 °F - 45.1 °F 89% 30.02 in 10.0 mi Calm Calm - N/A   Clear
11:15 PM 45.7 °F 44.4 °F 43.7 °F 93% 30.02 in 10.0 mi South 3.5 mph - N/A   Clear
11:35 PM 47.3 °F - 46.0 °F 95% 30.03 in 10.0 mi South 3.5 mph - N/A   Clear
11:55 PM 46.4 °F 44.3 °F 45.1 °F 95% 30.02 in 10.0 mi South 4.6 mph - N/A   Scattered Clouds